Weather History for KPGA - November, 2010

Change the Weather History Date:

Monday, November 1, 2010

  Actual Average Record
Temperature  
Mean Temperature 54 °F -  
Max Temperature 64 °F 60 °F 75 °F (1966)
Min Temperature 43 °F 40 °F 28 °F (1972)
Degree Days  
Heating Degree Days 12    
Growing Degree Days 4 (Base 50)    
Moisture  
Dew Point 30 °F    
Average Humidity 44    
Maximum Humidity 60    
Minimum Humidity 26    
Precipitation  
Precipitation 0.00 in - - ()
Sea Level Pressure  
Sea Level Pressure 30.33 in    
Wind  
Wind Speed 2 mph (ESE)    
Max Wind Speed 6 mph    
Max Gust Speed -    
Visibility 9 miles    
Events      
Averages and records for this station are not official NWS values.
T = Trace of Precipitation, MM = Missing Value Source: NWS Daily Summary

Daily Weather History Graph

Daily Weather History Graph

Search for Another Location

Airport or City:

Trip Planner

Search our weather history database for the weather conditions in past years. The results will help you decide how hot, cold, wet, or windy it might be!

Date:

Astronomy

Nov. 01, 2010 Rise Set
Actual Time 6:49 AM MST 5:28 PM MST
Civil Twilight 6:22 AM MST 5:55 PM MST
Nautical Twilight 5:52 AM MST 6:25 PM MST
Astronomical Twilight 5:22 AM MST 6:56 PM MST
Moon 1:37 AM MST (11/1) 2:31 PM MST (11/1)
Length of Visible Light 11h 32m
Length of Day
10h 38m
Waning Crescent, 25% of the Moon is Illuminated
Nov 1
Waning Crescent
Nov 5
New
Nov 13
First Quarter
Nov 21
Full
Nov 28
Last Quarter

Hourly Weather History & Observations

Time (MST) Temp. Windchill Dew Point Humidity Pressure Visibility Wind Dir Wind Speed Gust Speed Precip Events Conditions
12:53 AM 45.0 °F - 32.0 °F 60% 30.22 in 10.0 mi Calm Calm - N/A   Clear
1:53 AM 48.9 °F - 30.9 °F 50% 30.22 in 10.0 mi Calm Calm - N/A   Clear
2:53 AM 45.0 °F 41.8 °F 30.0 °F 56% 30.22 in 10.0 mi SSE 5.8 mph - N/A   Clear
3:53 AM 44.1 °F - 30.9 °F 60% 30.23 in 10.0 mi Calm Calm - N/A   Clear
4:53 AM 45.0 °F 42.6 °F 30.0 °F 56% 30.26 in 10.0 mi WSW 4.6 mph - N/A   Clear
5:53 AM 46.9 °F - 30.0 °F 52% 30.29 in 10.0 mi Calm Calm - N/A   Clear
6:53 AM 43.0 °F 40.3 °F 30.0 °F 60% 30.32 in 10.0 mi SSE 4.6 mph - N/A   Clear
7:53 AM 50.0 °F - 30.9 °F 48% 30.34 in 10.0 mi Calm Calm - N/A   Clear
8:53 AM 51.1 °F - 30.0 °F 44% 30.37 in 10.0 mi WSW 4.6 mph - N/A   Clear
9:53 AM 54.0 °F - 30.9 °F 41% 30.37 in 10.0 mi Variable 4.6 mph - N/A   Clear
10:53 AM 57.0 °F - 30.0 °F 36% 30.37 in 10.0 mi Calm Calm - N/A   Clear
11:53 AM 60.1 °F - 30.0 °F 32% 30.34 in 10.0 mi North 3.5 mph - N/A   Clear
12:53 PM 62.1 °F - 30.0 °F 30% 30.33 in 10.0 mi ENE 5.8 mph - N/A   Clear
1:53 PM 63.0 °F - 27.0 °F 26% 30.30 in 10.0 mi NNE 4.6 mph - N/A   Clear
2:53 PM 64.0 °F - 28.0 °F 26% 30.30 in 10.0 mi Variable 5.8 mph - N/A   Clear
3:53 PM 63.0 °F - 28.0 °F 27% 30.31 in 10.0 mi NE 3.5 mph - N/A   Clear
4:53 PM 62.1 °F - 28.0 °F 28% 30.32 in 10.0 mi North 3.5 mph - N/A   Clear
5:53 PM 55.9 °F - 32.0 °F 40% 30.34 in 9.0 mi Calm Calm - N/A   Clear
6:22 PM 55.4 °F - 32.0 °F 41% 30.41 in 1.8 mi Calm Calm - N/A   Haze
6:44 PM 53.6 °F - 32.0 °F 44% 30.42 in 3.0 mi Calm Calm - N/A   Haze
6:53 PM 55.0 °F - 30.9 °F 40% 30.37 in 10.0 mi ESE 3.5 mph - N/A   Clear
7:53 PM 54.0 °F - 30.0 °F 40% 30.38 in 10.0 mi SSE 4.6 mph - N/A   Clear
8:53 PM 52.0 °F - 30.9 °F 45% 30.39 in 10.0 mi Calm Calm - N/A   Partly Cloudy
9:53 PM 48.9 °F - 32.0 °F 52% 30.40 in 10.0 mi Calm Calm - N/A   Clear
10:53 PM 48.9 °F - 30.9 °F 50% 30.40 in 10.0 mi West 3.5 mph - N/A   Clear
11:53 PM 48.0 °F - 32.0 °F 54% 30.39 in 10.0 mi WSW 3.5 mph - N/A   Clear